Home > Weather > Myrtle Beach > Past weeks

Flag for USA Past Weather in Myrtle Beach, South Carolina, USA — Yesterday and Last 2 Weeks

Now
77 °F

Mostly cloudy.


Feels Like: 79 °F
Forecast: 73 / 83 °F
Wind: 9 mph from Northeast

Location: Myrtle Beach Air Force Base

Current Time: Jun 26, 2016 at 4:24:49 AM

Latest Report: Jun 26, 2016 at 3:55 AM


Visibility: 10 mi

Pressure: 30.11 "Hg

Humidity: 69%

Dew Point: 66 °F

Location of Myrtle BeachLocation

Past Weather in Myrtle Beach — Graph

°F

Myrtle Beach Temperature Yesterday

Maximum temperature yesterday: 88 °F (at 12:02 PM)
Minimum temperature yesterday: 75 °F (at 12:35 AM)
Average temperature yesterday: 80 °F

High & Low Weather Summary for the Past Weeks

 TemperatureHumidityPressure
High97 °F (Jun 12, 3:45 PM)79% (Jun 15, 2:55 AM)30.35 "Hg (Jun 15, 2:55 AM)
Low64 °F (Jun 20, 3:55 AM)37% (Jun 12, 3:45 PM)29.70 "Hg (Jun 17, 4:35 AM)
Average79 °F62%30.03 "Hg
* Reported Jun 11 3:15 AM — Jun 26 3:15 AM, Myrtle Beach, Weather by CustomWeather, © 2016

Note: Actual official high and low records may vary slightly from our data, if they occured in-between our weather recording intervals... More about our weather records

Advertising

Myrtle Beach Weather History for the Previous 24 Hours

Scroll right to see more
 ConditionsComfort  
Time TempWeatherWind HumidityBarometerVisibility
3:15 AM
Sun, Jun 26
79 °FMostly cloudy.10 mph65%30.11 "Hg10 mi
2:55 AM79 °FMostly cloudy.13 mph65%30.10 "Hg10 mi
2:35 AM79 °FMostly cloudy.13 mph70%30.12 "Hg10 mi
2:15 AM79 °FMostly cloudy.16 mph70%30.12 "Hg10 mi
1:55 AM79 °FOvercast.15 mph70%30.13 "Hg10 mi
1:35 AM79 °FPassing clouds.14 mph70%30.13 "Hg10 mi
1:15 AM79 °FPassing clouds.13 mph70%30.13 "Hg10 mi
12:55 AM79 °FPassing clouds.12 mph70%30.13 "Hg10 mi
12:35 AM79 °FPartly cloudy.12 mph70%30.12 "Hg10 mi
12:15 AM81 °FPartly cloudy.15 mph70%30.13 "Hg10 mi
11:55 PM
Sat, Jun 25
81 °FPartly cloudy.16 mph66%30.13 "Hg10 mi
11:35 PM81 °FOvercast.13 mph66%30.12 "Hg10 mi
11:15 PM81 °FOvercast.16 mph70%30.13 "Hg10 mi
10:55 PM81 °FPartly cloudy.14 mph70%30.13 "Hg10 mi
9:47 PM81 °FPassing clouds.13 mph70%30.11 "Hg8 mi
9:09 PM81 °FPartly sunny.14 mph70%30.11 "Hg8 mi
7:50 PM81 °FPassing clouds.8 mph66%30.09 "Hg10 mi
6:45 PM79 °FPassing clouds.8 mph65%30.07 "Hg10 mi
5:45 PM81 °FPartly sunny.14 mph62%30.06 "Hg10 mi
4:45 PM82 °FPartly sunny.9 mph70%30.07 "Hg8 mi
3:45 PM86 °FScattered clouds.9 mph62%30.04 "Hg8 mi
2:50 PM86 °FScattered clouds.8 mph62%30.05 "Hg8 mi
1:53 PM88 °FScattered clouds.10 mph59%30.08 "Hg8 mi
12:48 PM88 °FScattered clouds.9 mph59%30.07 "Hg8 mi
12:02 PM88 °FScattered clouds.8 mph59%30.09 "Hg7 mi
9:50 AM84 °FPartly sunny.12 mph66%30.07 "Hg10 mi
8:47 AM81 °FPartly sunny.7 mph74%30.06 "Hg10 mi
7:45 AM81 °FPassing clouds.6 mph74%30.04 "Hg10 mi
6:45 AM79 °FPassing clouds.6 mph74%30.03 "Hg10 mi
5:35 AM79 °FClear.5 mph74%30.01 "Hg10 mi
5:15 AM79 °FClear.6 mph74%30.01 "Hg10 mi
4:55 AM79 °FClear.7 mph74%30.01 "Hg10 mi
4:35 AM79 °FClear.7 mph74%30.01 "Hg10 mi
4:15 AM79 °FClear.6 mph74%30.00 "Hg10 mi
Weather by CustomWeather, © 2016

See weather overviewHow to use our weather pages